If you wish to contribute or participate in the discussions about articles you are invited to join SKYbrary as a registered user

 Actions

Amman/Marka

From SKYbrary Wiki

OJAM
Airport
ICAO: OJAM
Summary
Name Amman/Marka
Region Middle East
Territory Jordan JO.gif
Location Amman, Jordan
Serving
Coordinates 31° 58' 36", 35° 59' 30"
Runways
Designator Length Width Surface ROPS
6/24 3275 m10,744.751 ft 45 m147.638 ft ASP yes/yes


METAR
Observation OJAM 180700Z 30010KT CAVOK 26/04 Q1012 NOSIG
Station Amman Airport
Date/Time 18 June 2018 07:00:00
Wind direction 300°
Wind speed 10 kts
Lowest cloud amount clouds and visibility OK
Temperature 26°C
Dew point 4°C
Humidity 24%
QNH 1012 hPa
Weather condition n/a


Amman/Marka Airport

ICAO: OJAM IATA: ADJ

Description

Military airport.

Climatology

Dry-summer subtropical ”Mediterranean" climate (Köppen climate classification Csa) - characterized by hot, dry summers and mild winters. During the summer, subtropical high pressure cells dominate, making rainfall unlikely except for the occasional thunderstorm. In the winter, periodic storms bring rain.

Maps

Terrain

Loading map...

Airport Layout

Loading map...


Accidents & Serious Incidents at or in vicinity of OJAM

None on SKYbrary